Location: Balaclava NSW 2575, Australia
(34.4510°S, 150.4953°E)
Time: 23:04:52
(UTC+10:00)

XW-2C - Pass Details

Date: 29 July 2021
Orbit: 505 x 524 km, 97.5° (Epoch: 26 September)

Event Time Altitude Azimuth Distance (km) Brightness Sun altitude
Rises 18:36:34 0° 184° (S) 2,671 ? -16.8°
Reaches altitude 10° 18:39:00 10° 199° (SSW) 1,769 ? -17.3°
Maximum altitude 18:42:01 23° 251° (WSW) 1,145 ? -17.9°
Drops below altitude 10° 18:45:01 10° 304° (NW) 1,739 ? -18.6°
Sets 18:47:23 0° 319° (NW) 2,612 ? -19.0°
